Flag for Taiwan Weather past 2 weeks in Kaohsiung, Taiwan

Now
82 °F

Partly sunny.


Feels Like: 86 °F
Forecast: 73 / 87 °F
Wind: 8 mph from West

Location: Kaohsiung International Airport

Current Time: Apr 26, 2015 at 11:17:29 AM

Latest Report: Apr 26, 2015 at 10:30 AM


Visibility: 4 mi

Pressure: 30.04 "Hg

Humidity: 66%

Dew point: 70 °F

Location of KaohsiungLocation

Historic Weather in Kaohsiung — Graph

°F

Kaohsiung temperature yesterday

Maximum temperature yesterday: 84 °F (at 10:30 AM)
Minimum temperature yesterday: 75 °F (at 3:00 AM)
Average temperature yesterday: 80 °F

Past Weeks' High & Low Weather Summary

 TemperatureHumidityPressure
High90 °F (Apr 19, 2:30 PM)100% (Apr 11, 11:00 PM)30.09 "Hg (Apr 11, 11:00 PM)
Low63 °F (Apr 15, 4:00 AM)18% (Apr 14, 10:30 AM)29.77 "Hg (Apr 19, 3:00 PM)
Average79 °F67%29.96 "Hg
* Reported Apr 11 10:00 AM — Apr 26 10:00 AM, Kaohsiung, Weather by CustomWeather, © 2015

Note: Actual official high and low records may vary slightly from our data, if they occured in-between our weather recording intervals... More about our weather records

Advertising

Kaohsiung weather history for previous 24 hours

 ConditionsComfort  
Time TempWeatherWind HumidityBarometerVisibility
10:00 AM
Sun, Apr 26
82 °FPartly sunny.6 mph66%30.04 "Hg4 mi
9:30 AM82 °FPartly sunny.6 mph66%30.04 "Hg3 mi
9:00 AM82 °FPartly sunny.7 mph66%30.04 "Hg3 mi
8:30 AM81 °FPartly sunny.5 mph66%30.01 "Hg3 mi
8:00 AM79 °FPartly sunny.5 mph70%30.01 "Hg3 mi
7:30 AM77 °FPartly sunny.6 mph74%30.01 "Hg3 mi
7:00 AM77 °FPartly sunny.6 mph74%30.01 "Hg3 mi
6:30 AM75 °FFog.5 mph78%29.98 "Hg3 mi
6:00 AM75 °FFog.2 mph78%29.98 "Hg3 mi
5:00 AM75 °FPassing clouds.2 mph78%29.95 "Hg4 mi
4:00 AM75 °FPartly cloudy.6 mph78%29.95 "Hg4 mi
3:00 AM75 °FPassing clouds.7 mph78%29.95 "Hg4 mi
2:00 AM77 °FPassing clouds.3 mph79%29.95 "Hg4 mi
1:00 AM77 °FPassing clouds.2 mph79%29.95 "Hg4 mi
12:00 AM77 °FPassing clouds.5 mph79%29.98 "Hg4 mi
11:30 PM
Sat, Apr 25
79 °FPassing clouds.5 mph74%29.98 "Hg4 mi
11:00 PM79 °FPassing clouds.5 mph74%30.01 "Hg5 mi
10:30 PM79 °FPassing clouds.6 mph74%30.01 "Hg6 mi
10:00 PM81 °FPassing clouds.6 mph70%30.01 "HgN/A
9:30 PM81 °FPassing clouds.5 mph70%30.01 "HgN/A
9:00 PM79 °FPassing clouds.5 mph74%30.01 "HgN/A
8:30 PM79 °FPassing clouds.6 mph70%29.98 "HgN/A
8:00 PM79 °FPartly cloudy.5 mph70%29.98 "HgN/A
7:30 PM79 °FPartly cloudy.7 mph70%29.98 "Hg6 mi
7:00 PM79 °FPassing clouds.7 mph70%29.98 "Hg5 mi
6:30 PM81 °FPassing clouds.8 mph70%29.95 "Hg5 mi
6:00 PM81 °FBroken clouds.9 mph66%29.95 "Hg5 mi
5:30 PM81 °FScattered clouds.9 mph66%29.95 "Hg5 mi
5:00 PM82 °FPassing clouds.9 mph62%29.92 "Hg5 mi
4:30 PM82 °FScattered clouds.12 mph66%29.95 "Hg5 mi
4:00 PM82 °FScattered clouds.9 mph70%29.95 "Hg5 mi
3:30 PM82 °FPassing clouds.10 mph70%29.95 "Hg5 mi
3:00 PM84 °FPassing clouds.12 mph62%29.95 "Hg5 mi
2:30 PM84 °FPassing clouds.13 mph62%29.95 "Hg4 mi
2:00 PM84 °FPassing clouds.14 mph66%29.95 "Hg4 mi
1:30 PM84 °FPassing clouds.13 mph58%29.95 "Hg4 mi
1:00 PM84 °FPassing clouds.12 mph62%29.98 "Hg4 mi
12:30 PM84 °FPassing clouds.12 mph62%29.98 "Hg4 mi
12:00 PM84 °FPartly sunny.12 mph66%30.01 "Hg4 mi
11:30 AM84 °FBroken clouds.10 mph62%30.01 "Hg3 mi
11:00 AM82 °FBroken clouds.12 mph70%30.01 "Hg2 mi
Weather by CustomWeather, © 2015

See weather overviewHow to use our weather pages